Weather History for KHOT - June, 2012

Change the Weather History Date:

Tuesday, June 26, 2012

  Actual Average Record
Temperature  
Mean Temperature 85 °F -  
Max Temperature 98 °F 91 °F 101 °F (1954)
Min Temperature 73 °F 68 °F 53 °F (1958)
Cooling Degree Days 20    
Growing Degree Days 35 (Base 50)    
Moisture  
Dew Point 62 °F    
Average Humidity 45    
Maximum Humidity 60    
Minimum Humidity 31    
Precipitation  
Precipitation 0.00 in - - ()
Sea Level Pressure  
Sea Level Pressure 29.82 in    
Wind  
Wind Speed 7 mph (East)    
Max Wind Speed 16 mph    
Max Gust Speed 20 mph    
Visibility 10 miles    
Events      
Averages and records for this station are not official NWS values.
T = Trace of Precipitation, MM = Missing Value Source: NWS Daily Summary

Daily Weather History Graph

Daily Weather History Graph

Search for Another Location

Airport or City:

Trip Planner

Search our weather history database for the weather conditions in past years. The results will help you decide how hot, cold, wet, or windy it might be!

Date:

Astronomy

Jun. 26, 2012 Rise Set
Actual Time 6:01 AM CDT 8:28 PM CDT
Civil Twilight 5:32 AM CDT 8:58 PM CDT
Nautical Twilight 4:56 AM CDT 9:34 PM CDT
Astronomical Twilight 4:16 AM CDT 10:14 PM CDT
Moon 12:59 PM CDT (6/26) 12:15 AM CDT (6/26)
Length of Visible Light 15h 25m
Length of Day
14h 27m
Waxing Crescent, 45% of the Moon is Illuminated
Jun 26
Waxing Crescent
Jun 26
First Quarter
Jul 3
Full
Jul 10
Last Quarter
Jul 18
New

Hourly Weather History & Observations

Time (CDT) Temp. Heat Index Dew Point Humidity Pressure Visibility Wind Dir Wind Speed Gust Speed Precip Events Conditions
12:53 AM 86.0 °F 88.2 °F 66.0 °F 51% 29.78 in 10.0 mi East 4.6 mph - N/A   Clear
1:53 AM 84.9 °F 87.1 °F 66.0 °F 53% 29.78 in 10.0 mi East 3.5 mph - N/A   Clear
2:53 AM 82.9 °F 85.0 °F 66.0 °F 56% 29.78 in 10.0 mi East 3.5 mph - N/A   Clear
3:53 AM 81.0 °F 83.0 °F 66.0 °F 60% 29.78 in 10.0 mi Calm Calm - N/A   Clear
4:53 AM 82.0 °F 84.5 °F 66.9 °F 60% 29.80 in 10.0 mi East 6.9 mph - N/A   Clear
5:53 AM 82.0 °F 84.5 °F 66.9 °F 60% 29.81 in 10.0 mi East 8.1 mph - N/A   Clear
6:53 AM 82.0 °F 84.1 °F 66.0 °F 58% 29.83 in 10.0 mi East 9.2 mph - N/A   Clear
7:53 AM 82.9 °F 85.0 °F 66.0 °F 56% 29.84 in 10.0 mi East 11.5 mph - N/A   Clear
8:53 AM 84.9 °F 86.6 °F 64.9 °F 51% 29.85 in 10.0 mi East 13.8 mph - N/A   Clear
9:53 AM 87.1 °F 88.9 °F 64.9 °F 48% 29.86 in 10.0 mi ESE 8.1 mph - N/A   Clear
10:53 AM 90.0 °F 91.7 °F 64.9 °F 43% 29.86 in 10.0 mi ESE 9.2 mph - N/A   Clear
11:53 AM 91.0 °F 93.0 °F 64.9 °F 42% 29.85 in 10.0 mi ESE 9.2 mph - N/A   Clear
12:53 PM 93.9 °F 96.1 °F 64.9 °F 38% 29.84 in 10.0 mi East 11.5 mph - N/A   Clear
1:53 PM 96.1 °F 98.8 °F 64.9 °F 36% 29.82 in 10.0 mi ENE 4.6 mph - N/A   Clear
2:53 PM 96.1 °F 98.8 °F 64.9 °F 36% 29.81 in 10.0 mi East 10.4 mph - N/A   Clear
3:53 PM 97.0 °F 99.3 °F 64.0 °F 34% 29.80 in 10.0 mi East 11.5 mph 18.4 mph N/A   Clear
4:53 PM 97.0 °F 98.3 °F 63.0 °F 32% 29.79 in 10.0 mi East 16.1 mph 19.6 mph N/A   Clear
5:53 PM 96.1 °F 96.4 °F 61.0 °F 31% 29.78 in 10.0 mi East 12.7 mph 18.4 mph N/A   Clear
6:53 PM 93.0 °F 93.0 °F 61.0 °F 34% 29.79 in 10.0 mi ESE 9.2 mph 17.3 mph N/A   Clear
7:53 PM 89.1 °F 88.0 °F 57.9 °F 35% 29.81 in 10.0 mi East 12.7 mph - N/A   Clear
8:53 PM 84.9 °F - 52.0 °F 32% 29.82 in 10.0 mi ESE 11.5 mph - N/A   Clear
9:53 PM 80.1 °F - 52.0 °F 38% 29.84 in 10.0 mi East 5.8 mph - N/A   Clear
10:53 PM 73.9 °F - 53.1 °F 48% 29.86 in 10.0 mi East 5.8 mph - N/A   Clear
11:53 PM 75.9 °F - 51.1 °F 42% 29.86 in 10.0 mi East 4.6 mph - N/A   Clear